#timestamp,LO_Frequency,Hit,StdDev 
1644238815.2,286047006.4,N
1644238835.0,286047003.5,N
1644238835.9,286047003.5,N
1644238855.8,286047003.1,N
1644238875.6,286047003.3,N
1644238895.4,286047005.9,N
1644238915.3,286047005.4,N
1644238935.1,286047003.6,N
1644238955.8,286047000.2,N
1644238975.7,286047002.8,N
1644238995.5,286046999.7,N
1644239015.4,286047001.6,N
1644239035.2,286047004.4,N
1644239055.0,286047001.6,N
1644239055.9,286047001.6,N
1644239075.8,286047004.1,N
1644239095.6,286047001.3,N
1644239115.4,286047000.9,N
1644239135.3,286047000.5,N
1644239155.1,286047002.5,N
1644239175.9,286046999.8,N
1644239195.7,286046998.1,N
1644239215.5,286047000.1,N
1644239235.4,286047000.4,N
1644239255.2,286047002.1,N
1644239275.0,286047004.0,N
1644239276.0,286047004.0,N
1644239295.8,286047002.2,N
1644239315.6,286047001.3,N
1644239335.5,286047003.9,N
1644239355.3,286047006.3,Y
1644239375.1,286047003.0,P
1644239395.9,286047003.6,P
1644239415.7,286047002.9,P
1644239435.6,286047004.3,Y
1644239455.4,286046997.1,P
1644239475.2,286046996.3,N
1644239495.1,286046994.8,N
1644239496.0,286046994.8,N
1644239515.8,286046993.6,N
1644239535.7,286046998.0,N
1644239555.5,286046996.0,N
1644239575.3,286046994.5,N
1644239595.2,286046992.0,Y
1644239615.0,286046996.1,P
1644239615.9,286046996.1,P
1644239635.8,286046998.0,P
1644239655.6,286046996.6,Y
1644239675.4,286046999.8,P
1644239695.3,286047000.0,N
1644239715.1,286046999.8,N
1644239735.8,286047003.6,N
1644239755.7,286047001.4,N
1644239775.5,286047002.5,N
1644239795.4,286046999.7,N
1644239815.2,286047000.5,N
1644239835.0,286047000.2,N
1644239835.9,286047000.2,N
1644239855.8,286046999.9,N
1644239875.6,286047003.9,N
1644239895.5,286047002.2,N
1644239915.3,286046998.6,N
1644239935.1,286047000.5,N
1644239955.9,286047000.8,N
1644239975.7,286047000.0,N
1644239995.5,286047001.0,N
1644240015.4,286046999.8,N
1644240035.2,286047003.7,N
1644240055.1,286047002.9,N
1644240056.0,286047002.9,N
1644240075.8,286047005.7,Y
1644240095.7,286047004.8,P
1644240115.5,286047006.0,P
1644240135.3,286047002.5,N
1644240155.2,286046996.8,N
1644240175.9,286046996.8,N
1644240195.7,286046996.6,N
1644240215.6,286047002.0,N
1644240235.4,286047003.7,N
1644240255.3,286047008.4,N
1644240275.1,286047006.5,N
1644240276.0,286047006.5,N
1644240295.8,286047007.7,N
1644240315.7,286047011.9,N
1644240335.5,286047006.5,N
1644240355.4,286047006.8,N
1644240375.2,286047008.8,N
1644240395.0,286047005.1,N
1644240395.9,286047005.1,N
1644240415.8,286047003.6,N
1644240435.6,286047002.4,N
1644240455.4,286047004.3,N
1644240475.3,286047001.7,N
1644240495.1,286047004.3,N
1644240515.9,286047001.5,N
1644240535.7,286047003.5,N
1644240555.5,286047003.6,N
1644240575.4,286047005.8,N
1644240595.2,286047004.6,N
1644240615.0,286047004.7,N
1644240615.9,286047004.7,N
1644240635.8,286047005.1,N
1644240685.7,286047004.8,E
1644240695.6,286047001.5,N
1644240715.4,286046998.6,P
1644240735.3,286046998.3,N
1644240755.1,286046998.2,N
1644240756.0,286046998.2,N
1644240775.8,286046997.5,N
1644240795.7,286046997.9,N
1644240815.5,286046995.8,Y
1644240835.3,286046999.0,P
1644240855.2,286047002.3,P
1644240875.0,286046997.7,N
1644240875.9,286046997.7,N
1644240895.8,286046996.9,N
1644240915.6,286047004.0,N
1644240935.4,286047002.5,N
1644240955.3,286046998.1,N
1644240975.1,286046997.3,N
1644240995.8,286046999.6,N
1644241015.7,286046999.5,N
1644241035.5,286046999.3,N
1644241055.4,286046996.9,N
1644241075.2,286046996.6,N
1644241095.0,286046999.5,N
1644241095.9,286046999.5,N
1644241115.8,286046999.6,N
1644241135.6,286046996.5,N
1644241155.5,286046998.5,N
1644241175.3,286047000.3,N
1644241195.1,286047002.6,N
1644241215.9,286047002.3,N
1644241235.7,286047002.4,N
1644241255.6,286047000.7,N
1644241275.4,286046998.7,N
1644241295.2,286046999.0,N
1644241315.1,286046998.7,N
1644241316.0,286046998.7,N
1644241335.8,286047004.4,N
1644241355.6,286047002.8,N
1644241375.5,286047000.0,N
1644241395.3,286046997.4,N
1644241415.2,286046995.9,N
1644241435.9,286046995.6,N
1644241455.7,286046996.5,N
1644241475.6,286046995.2,N
1644241495.4,286046997.6,N
1644241515.2,286046999.2,N
1644241535.1,286047000.4,N
1644241536.0,286047000.4,N
1644241555.8,286047000.2,N
1644241575.7,286046999.1,N
1644241595.5,286046997.2,N
1644241615.3,286046998.3,N
1644241635.2,286046999.2,N
1644241655.0,286046997.3,N
1644241655.9,286046997.3,N
1644241675.7,286046998.7,N
1644241695.6,286047002.0,N
1644241715.4,286047002.2,N
1644241735.3,286047000.4,N
1644241755.1,286046998.3,N
1644241775.8,286046999.3,N
1644241795.7,286046996.4,N
1644241815.5,286046992.2,Y
1644241835.4,286046990.3,P
1644241855.2,286046992.6,N
1644241875.0,286046993.8,N
1644241875.9,286046993.8,N
1644241895.8,286046996.4,N
1644241915.6,286046995.0,N
1644241935.4,286046996.4,N
1644241955.3,286046993.3,N
1644241975.1,286046997.5,N
1644241995.9,286046995.2,N
1644242015.7,286046997.4,N
1644242035.5,286046998.5,N
1644242055.4,286046998.3,N
1644242075.2,286046999.3,N
1644242095.0,286046996.9,N
1644242095.9,286046996.9,N
1644242115.8,286046995.1,N
1644242135.6,286046997.1,N
1644242155.5,286047004.4,N
1644242175.3,286047001.8,N
1644242195.1,286047001.6,N
1644242215.9,286046999.9,N
1644242235.7,286047000.8,N
1644242255.5,286046996.5,N
1644242275.4,286046995.4,N
1644242295.2,286046997.8,N
1644242315.1,286047001.0,N
1644242316.0,286047001.0,N
1644242335.8,286047002.4,N
1644242355.6,286046999.9,N
1644242375.5,286046998.7,N
1644242395.3,286046999.4,N
